Weather History for KDCU - February, 2014

Change the Weather History Date:

Sunday, February 2, 2014

  Actual Average Record
Temperature  
Mean Temperature 48 °F -  
Max Temperature 59 °F 53 °F 74 °F (1989)
Min Temperature 37 °F 33 °F 0 °F (1951)
Degree Days  
Heating Degree Days 17    
Moisture  
Dew Point 48 °F    
Average Humidity 95    
Maximum Humidity 100    
Minimum Humidity 80    
Precipitation  
Precipitation 1.30 in - - ()
Sea Level Pressure  
Sea Level Pressure 29.99 in    
Wind  
Wind Speed 8 mph (East)    
Max Wind Speed 14 mph    
Max Gust Speed 23 mph    
Visibility 5 miles    
Events Rain    
Averages and records for this station are not official NWS values.
T = Trace of Precipitation, MM = Missing Value Source: NWS Daily Summary

Daily Weather History Graph

Daily Weather History Graph

Search for Another Location

Airport or City:

Trip Planner

Search our weather history database for the weather conditions in past years. The results will help you decide how hot, cold, wet, or windy it might be!

Date:

Astronomy

Feb. 02, 2014 Rise Set
Actual Time 6:45 AM CST 5:18 PM CST
Civil Twilight 6:18 AM CST 5:44 PM CST
Nautical Twilight 5:48 AM CST 6:14 PM CST
Astronomical Twilight 5:19 AM CST 6:44 PM CST
Moon 8:21 AM CST (2/2) 8:50 PM CST (2/2)
Length of Visible Light 11h 25m
Length of Day
10h 33m
Waxing Crescent, 11% of the Moon is Illuminated
Feb 2
Waxing Crescent
Feb 6
First Quarter
Feb 14
Full
Feb 22
Last Quarter
Mar 1
New

Hourly Weather History & Observations

Time (CST) Temp. Windchill Dew Point Humidity Pressure Visibility Wind Dir Wind Speed Gust Speed Precip Events Conditions
12:53 AM 52.0 °F - 46.0 °F 80% 30.01 in 10.0 mi South 6.9 mph - N/A   Overcast
1:53 AM 51.1 °F - 46.0 °F 83% 30.00 in 10.0 mi SSE 11.5 mph - N/A   Scattered Clouds
2:53 AM 50.0 °F - 46.0 °F 86% 30.01 in 10.0 mi South 9.2 mph - N/A   Clear
3:16 AM 51.8 °F - 48.2 °F 88% 30.01 in 10.0 mi SSE 8.1 mph - N/A   Mostly Cloudy
3:23 AM 53.6 °F - 50.0 °F 88% 30.00 in 10.0 mi SSE 10.4 mph - N/A   Overcast
3:53 AM 53.1 °F - 50.0 °F 89% 30.00 in 10.0 mi South 8.1 mph - N/A   Overcast
4:53 AM 55.9 °F - 53.1 °F 90% 30.00 in 10.0 mi South 12.7 mph - N/A   Overcast
5:42 AM 55.4 °F - 53.6 °F 94% 30.01 in 8.0 mi South 9.2 mph - N/A   Overcast
5:53 AM 55.9 °F - 54.0 °F 93% 30.01 in 8.0 mi South 9.2 mph - N/A   Overcast
6:53 AM 57.0 °F - 55.0 °F 93% 30.04 in 7.0 mi SSW 9.2 mph - N/A   Overcast
7:53 AM 57.0 °F - 55.0 °F 93% 30.05 in 6.0 mi SSW 8.1 mph - N/A   Overcast
8:45 AM 57.2 °F - 55.4 °F 94% 30.06 in 7.0 mi South 9.2 mph - N/A   Overcast
8:53 AM 57.9 °F - 54.0 °F 87% 30.07 in 7.0 mi SSW 9.2 mph - N/A   Overcast
9:53 AM 59.0 °F - 55.0 °F 87% 30.07 in 7.0 mi SSW 8.1 mph - N/A   Overcast
10:36 AM 57.2 °F - 55.4 °F 94% 30.06 in 3.0 mi SW 3.5 mph - 0.00 in Rain Light Rain
10:53 AM 57.0 °F - 55.9 °F 96% 30.06 in 4.0 mi WSW 3.5 mph - 0.00 in   Overcast
11:02 AM 57.2 °F - 55.4 °F 94% 30.07 in 2.5 mi Calm Calm - 0.00 in Rain Light Rain
11:13 AM 57.2 °F - 55.4 °F 94% 30.06 in 1.5 mi Calm Calm - 0.01 in Rain Light Rain
11:21 AM 57.2 °F - 57.2 °F 100% 30.05 in 3.0 mi Calm Calm - 0.01 in Rain Light Rain
11:53 AM 57.9 °F - 57.0 °F 97% 30.03 in 4.0 mi South 4.6 mph - 0.01 in Rain Light Rain
12:51 PM 57.2 °F - 57.2 °F 100% 30.00 in 1.8 mi South 4.6 mph - 0.03 in Rain Rain
12:52 PM 57.9 °F - 57.0 °F 97% 29.99 in 1.8 mi South 4.6 mph - 0.03 in Rain Rain
1:05 PM 57.2 °F - 57.2 °F 100% 29.99 in 3.0 mi SSE 3.5 mph - 0.01 in Rain Light Rain
1:15 PM 57.2 °F - 57.2 °F 100% 29.98 in 4.0 mi East 3.5 mph - 0.01 in Rain Light Rain
1:22 PM 57.2 °F - 57.2 °F 100% 29.97 in 4.0 mi ESE 3.5 mph - 0.01 in   Overcast
1:39 PM 57.2 °F - 57.2 °F 100% 29.96 in 2.5 mi ENE 3.5 mph - 0.02 in Rain Light Rain
1:50 PM 57.2 °F - 57.2 °F 100% 29.96 in 1.2 mi Calm Calm - 0.08 in Rain Heavy Rain
1:53 PM 57.0 °F - 57.0 °F 100% 29.95 in 1.5 mi ESE 3.5 mph - 0.09 in Rain Heavy Rain
2:05 PM 57.2 °F - 57.2 °F 100% 29.95 in 1.8 mi NNE 3.5 mph - 0.03 in Rain Rain
2:15 PM 57.2 °F - 57.2 °F 100% 29.95 in 2.0 mi Calm Calm - 0.06 in Rain Heavy Rain
2:32 PM 57.2 °F - 57.2 °F 100% 29.95 in 1.8 mi NE 3.5 mph - 0.12 in Rain Heavy Rain
2:53 PM 55.0 °F - 55.0 °F 100% 29.96 in 2.0 mi NNW 13.8 mph - 0.18 in Rain Heavy Rain
3:01 PM 50.0 °F - 50.0 °F 100% 29.95 in 1.5 mi North 12.7 mph - 0.06 in Rain Heavy Rain
3:07 PM 50.0 °F - 50.0 °F 100% 29.94 in 2.5 mi NNE 11.5 mph - 0.07 in Rain Rain
3:14 PM 50.0 °F - 50.0 °F 100% 29.95 in 5.0 mi North 12.7 mph - 0.07 in Rain Light Rain
3:35 PM 48.2 °F - 48.2 °F 100% 29.95 in 2.5 mi North 13.8 mph - 0.10 in Rain Rain
3:42 PM 48.2 °F - 46.4 °F 93% 29.94 in 3.0 mi NNE 12.7 mph - 0.11 in Rain Light Rain
3:53 PM 48.0 °F - 46.9 °F 96% 29.93 in 5.0 mi NE 10.4 mph - 0.11 in Rain Light Rain
4:00 PM 48.2 °F - 46.4 °F 93% 29.93 in 9.0 mi NNE 11.5 mph - 0.00 in Rain Light Rain
4:42 PM 44.6 °F 38.4 °F 42.8 °F 93% 29.93 in 2.5 mi NNE 12.7 mph - 0.05 in Rain Heavy Rain
4:53 PM 44.1 °F 37.7 °F 43.0 °F 96% 29.94 in 2.5 mi North 12.7 mph 18.4 mph 0.07 in Rain Light Rain
5:00 PM 42.8 °F 35.8 °F 42.8 °F 100% 29.95 in 8.0 mi North 13.8 mph 23.0 mph 0.00 in Rain Light Rain
5:53 PM 39.9 °F 32.1 °F 39.0 °F 97% 29.99 in 3.0 mi North 13.8 mph - 0.12 in Rain Rain
6:40 PM 39.2 °F 33.0 °F 37.4 °F 93% 30.00 in 5.0 mi North 9.2 mph - 0.12 in Rain Light Rain
6:53 PM 39.0 °F 32.8 °F 37.9 °F 96% 30.02 in 8.0 mi North 9.2 mph 17.3 mph 0.12 in Rain Light Rain
7:18 PM 39.2 °F 32.5 °F 37.4 °F 93% 29.98 in 10.0 mi NNE 10.4 mph - 0.00 in Rain Light Rain
7:53 PM 37.9 °F 30.9 °F 37.0 °F 97% 29.96 in 10.0 mi North 10.4 mph - 0.01 in Rain Light Rain
8:12 PM 37.4 °F 28.9 °F 35.6 °F 93% 29.96 in 10.0 mi North 13.8 mph - 0.00 in Rain Light Rain
8:53 PM 37.9 °F 30.9 °F 36.0 °F 93% 29.96 in 5.0 mi North 10.4 mph - 0.04 in Rain Heavy Rain
9:45 PM 37.4 °F 29.8 °F 37.4 °F 100% 29.94 in 6.0 mi NNW 11.5 mph - 0.15 in Rain Light Rain
9:53 PM 37.9 °F - 37.0 °F 97% 29.94 in 5.0 mi North - - 0.17 in Rain Heavy Rain
10:27 PM 37.4 °F - 35.6 °F 93% 29.97 in 4.0 mi North - - 0.11 in Rain Heavy Rain
10:53 PM 37.0 °F - 36.0 °F 96% 30.00 in 3.0 mi North - - 0.21 in Rain Heavy Rain
10:57 PM 37.4 °F - 35.6 °F 93% 29.99 in 2.0 mi North - - 0.04 in Rain Heavy Rain
10:59 PM 37.4 °F - 35.6 °F 93% 29.99 in 1.8 mi North - - 0.06 in Rain Heavy Rain
11:02 PM 37.4 °F - 35.6 °F 93% 29.98 in 2.0 mi North - - 0.07 in Rain Heavy Rain
11:06 PM 37.4 °F - 35.6 °F 93% 29.96 in 3.0 mi North - - 0.07 in Rain Rain
11:16 PM 37.4 °F - 35.6 °F 93% 29.93 in 8.0 mi North - - 0.08 in Rain Light Rain
11:25 PM 37.4 °F - 35.6 °F 93% 29.91 in 6.0 mi North - - 0.10 in Rain Heavy Rain
11:53 PM 37.0 °F - 36.0 °F 96% 29.93 in 7.0 mi North - - 0.14 in Rain Rain